Main page
METAR-TAF:

METAR-TAF

Airports :

Ramsar International Airport

Ramsar, Iran

latitude: 36-54N, longitude: 050-40E, elevation: -23 m

Current weather observation

The report was made 1 hour and 8 minutes ago, at 07:00 UTC
Wind 10 kt from the North
Temperature 29°C
Humidity 55%
Pressure 1011 hPa
Visibility 10 km or more
Few clouds at a height of 3300 ft

METAR: OINR 250700Z 01010KT 9999 FEW033 29/19 Q1011

Time: 12:38 (08:08 UTC)


TAF: missing

Weather observations and forecasts of more than 4000 airports (METAR and TAF reports).

The available stations are represented by yellow and red dots on the map.

Hover mouse over dot to see the name of the station.

Then click to see weather observations and forecasts.

To change the map : click on the green buttons with a black cross to zoom in, on the green button with a dash to zoom out, or on the green arrows for adjacent maps.


METAR-TAF: